Satellite-Ground Cal/Val Region Overpasses Predictions

Prediction of Satellite NPP Overpassing Cal/Val Region: PacNW

Region Location: (Latitude: 10.00, Longitude: 139.50) to (Latitude: 22.70, Longitude: 165.60).

Table of predicted overpasses for the next 14.0 days since TLE Epoch: 12/14/2015
Interval Starting Time Starting Location Ending Time Ending Location
1 12/14/2015 14:54:34 ( 22.65, 161.80) 12/14/2015 14:58:09 ( 10.03, 158.81)
2 12/15/2015 03:45:08 ( 10.02, 143.98) 12/15/2015 03:48:44 ( 22.70, 140.96)
3 12/15/2015 14:36:39 ( 18.72, 165.59) 12/15/2015 14:39:07 ( 10.03, 163.56)
4 12/15/2015 16:17:02 ( 22.64, 141.18) 12/15/2015 16:19:00 ( 15.72, 139.51)
5 12/16/2015 03:26:06 ( 10.02, 148.73) 12/16/2015 03:29:42 ( 22.70, 145.72)
6 12/16/2015 15:57:59 ( 22.64, 145.94) 12/16/2015 16:01:34 ( 10.02, 142.94)
7 12/17/2015 03:07:03 ( 10.01, 153.49) 12/17/2015 03:10:39 ( 22.70, 150.48)
8 12/17/2015 15:38:57 ( 22.65, 150.70) 12/17/2015 15:42:32 ( 10.03, 147.70)
9 12/18/2015 02:48:01 ( 10.01, 158.25) 12/18/2015 02:51:37 ( 22.70, 155.24)
10 12/18/2015 15:19:54 ( 22.65, 155.46) 12/18/2015 15:23:29 ( 10.03, 152.46)
11 12/19/2015 02:28:58 ( 10.01, 163.01) 12/19/2015 02:32:34 ( 22.70, 159.99)
12 12/19/2015 15:00:52 ( 22.65, 160.21) 12/19/2015 15:04:27 ( 10.03, 157.22)
13 12/20/2015 02:12:34 ( 19.29, 165.59) 12/20/2015 02:13:32 ( 22.70, 164.75)
14 12/20/2015 03:51:26 ( 10.02, 142.39) 12/20/2015 03:54:53 ( 22.18, 139.51)
15 12/20/2015 14:41:50 ( 22.65, 164.97) 12/20/2015 14:45:25 ( 10.03, 161.97)
16 12/20/2015 16:23:18 ( 22.70, 139.61) 12/20/2015 16:23:25 ( 22.29, 139.51)
17 12/21/2015 03:32:23 ( 10.02, 147.14) 12/21/2015 03:35:58 ( 22.65, 144.15)
18 12/21/2015 16:04:16 ( 22.70, 144.37) 12/21/2015 16:07:52 ( 10.02, 141.36)
19 12/22/2015 03:13:21 ( 10.03, 151.90) 12/22/2015 03:16:56 ( 22.65, 148.90)
20 12/22/2015 15:45:14 ( 22.69, 149.12) 12/22/2015 15:48:50 ( 10.01, 146.11)
21 12/23/2015 02:54:18 ( 10.03, 156.66) 12/23/2015 02:57:53 ( 22.65, 153.66)
22 12/23/2015 15:26:11 ( 22.69, 153.88) 12/23/2015 15:29:47 ( 10.01, 150.87)
23
